Location: Gorze? G�rny
(49.8500°N, 19.5000°E)
Time: 04:11:52
(UTC+00:00)

Cosmos 1328 Rocket - Pass Details

Date: 13 May 2021
Orbit: 601 x 627 km, 82.5° (Epoch: 23 June)

Event Time Altitude Azimuth Distance (km) Brightness Sun altitude
Rises 19:38:16 0° 196° (SSW) 2,899 6.7 -10.9°
Reaches altitude 10° 19:40:30 10° 199° (SSW) 1,995 5.9 -11.1°
Maximum altitude 19:44:54 66° 282° (WNW) 683 4.0 -11.6°
Drops below altitude 10° 19:49:19 10° 5° (N) 1,998 6.8 -12.0°
Sets 19:51:34 0° 8° (N) 2,904 7.7 -12.3°
